RASAT

Satellite information

Favourite Embed

Satellite Type and Status

PAYLOADIN ORBIT

Key statistics

Satellite RASAT at a glance.

Uptime

5071

Days in orbit

Revolutions

≈ 14.7

Per day

Orbit

SSO

Sun Synchronous Orbit

Inclination

98.1

Latest

Satellite identification and parameters

Extended collection of information and parameters for RASAT.

Object identification

Identified? True

Debris? False

Object name: RASAT

International designator: 2011-044D

Object number (NORAD): 37791

Object ID (CCSDS): 37791

Country: TURKEY (TURK)

Current information (Y/N): Y

RCS size: MEDIUM

Orbital parameters

Period: 98.119 minutes

Inclination: 98.0686 deg

SMA: 7046.835 km

Apoapsis: 682.862 km

Periapsis: 654.538 km

RAAN: 277.4795 deg

Eccentricy: 0.0020097

Argument of periapsis: 209.9479 deg

Mean anomaly: 299.8695 deg

Mean motion: 14.67613129 rev/day

Mean motion (dot): 0.00000412 rev/day2

B* drag term: 0.000080964 1/REarth

Two-line elements (TLE)

Creation date: July 4, 2025, 10:36 p.m.

Reference frame: TEME

Reference center: EARTH

Epoch: July 4, 2025, 7:48 p.m. UTC

TLE line 0: 0 RASAT

TLE line 1: 1 37791U 11044D 25185.82547196 .00000412 00000-0 80964-4 0 9998

TLE line 2: 2 37791 98.0686 277.4795 0020097 209.9479 299.8695 14.67613129742242

Live tracking on map

Real-time ground track for satellite RASAT.

In-orbit conjunctions

There are no conjunctions computed for RASAT, at the moment. Check back to stay up to date, as we update our databases every day.

Go to all conjunctions

Associated space launch

RASAT was lifted into orbit during the mission ‘Dnepr 1 | Sich-2’, on board a Dnepr space rocket.

The launch took place on Aug. 17, 2011, 7:12 a.m. from 370/13.

For more information about the launch, click the button.

Launch to space Dnepr 1 | Sich-2
Dnepr 1 | Sich-2

Agency: N/A

Status: Launch Successful

Launch date: Aug. 17, 2011, 7:12 a.m. UTC

Rocket: Dnepr

Launch pad: 370/13

Location: Dombarovskiy, Russian Federation

...

Latest news about this satellite

There are no fresh news available about this satellite. Check back as we update our databases every day.


Newsletter sign-up

Weekly statistics, charts and insights to help you stay on top of the space industry.